ROBUSTA-3A (MEDITERRAN*)

Last updated on Sun Jun 21 2026 00:03:50 GMT+0000 (Coordinated Universal Time)

1 60243U 24128J 26171.44217900 .00004267 00000+0 25756-3 0 9992 2 60243 61.9846 196.7324 0041011 128.5967 231.8813 15.11702693106916
UTC large
Height (km)
Speed (km/s)
/
Latitude / Longitude
Inclination (degrees)
Orbital Period (minutes)
Azimuth
Elevation
Range (km)
Doppler Factor

Next 0 passes for location: London (51.5072 / 0.1276)

No passes found over London.
ROBUSTA-3A (MEDITERRAN*)